EHI
1 1 0 0 0 0 0 0 0 0 0 0 0 0 0 0 0 0 3 10 9 4 1 0 0 0 0 1 0 1 2 3 3 3 3 3 3 3 3 1 0 0 0
2 2 1 1 0 0 0 0 0 0 0 0 0 0 0 0 0 0 1 6 10 7 2 1 0 0 1 2 2 2 2 2 2 3 3 3 3 3 3 2 0 0 0
3 3 3 2 1 1 1 1 0 0 0 0 0 0 1 1 0 0 1 3 6 6 5 3 1 1 2 3 6 6 4 1 1 2 3 3 3 2 2 1 0 0 0
6 6 6 5 3 3 3 2 1 1 2 1 0 0 1 1 1 1 2 2 3 4 4 4 3 2 2 3 6 9 9 5 2 1 2 2 1 1 1 0 0 0 0
17 17 14 10 8 7 6 4 3 4 4 2 1 0 1 1 2 2 2 2 2 2 2 3 4 2 1 2 6 11 14 10 4 1 1 1 1 0 0 0 0 0 0
35 32 25 18 15 14 10 6 5 5 5 4 2 1 1 1 1 2 2 1 1 1 0 1 2 1 1 2 6 11 14 13 7 2 0 0 0 0 0 0 0 0 0
43 41 35 28 25 22 15 8 7 7 5 6 6 4 1 0 1 2 2 1 1 0 0 0 1 1 2 3 4 7 9 10 8 4 1 1 1 1 1 0 0 0 0
44 42 39 35 31 27 20 13 9 8 6 8 10 8 3 0 0 1 2 2 1 0 0 0 1 2 3 4 4 3 3 5 6 5 3 2 2 2 1 0 0 0 0
46 44 39 36 33 29 23 17 12 9 9 11 12 11 6 2 0 0 1 2 2 1 0 0 1 1 1 3 5 2 1 1 2 3 2 2 2 1 0 0 0 0 0
49 44 36 33 31 28 24 20 16 14 13 14 13 10 7 4 2 1 1 1 2 1 0 0 0 0 0 2 4 2 0 0 0 1 1 0 0 0 0 0 0 0 0
45 38 31 30 29 27 26 24 20 17 15 12 9 7 5 4 4 4 2 0 1 1 0 0 0 0 0 2 3 1 0 0 0 0 0 0 0 0 0 0 0 0 0
37 30 25 27 28 26 25 22 19 16 13 8 4 3 3 2 3 4 2 0 0 0 0 0 0 1 1 2 2 1 0 0 0 0 0 0 0 0 0 0 0 0 0
31 25 21 23 24 21 18 17 16 14 10 6 2 2 2 1 1 2 1 0 0 0 0 0 0 1 2 2 2 0 0 0 0 0 0 0 0 0 0 0 0 0 0
27 23 19 19 19 15 12 12 13 10 6 2 1 1 1 0 0 0 0 0 0 0 0 0 0 0 1 1 1 0 0 0 0 0 0 0 0 0 0 0 0 0 0
19 16 15 15 14 11 8 7 6 4 2 0 0 0 0 0 0 0 0 0 0 0 0 0 0 0 0 0 0 0 0 0 0 0 0 0 0 0 0 0 0 0 0
10 9 8 9 8 6 4 3 2 1 0 0 1 0 0 0 0 0 0 0 0 0 0 0 0 0 0 0 0 0 0 0 0 0 0 0 0 0 0 0 0 0 0
5 4 3 3 2 1 1 1 1 0 0 0 0 0 0 0 0 0 0 0 0 0 0 0 0 0 0 0 0 0 0 0 0 0 0 0 0 0 0 0 0 0 0
1 1 1 0 0 0 0 0 0 0 0 0 0 0 0 0 0 0 0 0 0 0 0 0 0 0 0 0 0 0 0 0 0 0 0 0 0 0 0 0 0 0 0
0 0 0 0 0 0 0 0 0 0 0 0 0 0 0 0 0 0 0 0 0 0 0 0 0 0 0 0 0 0 0 0 0 0 0 0 0 0 0 0 0 0 0
0 0 0 0 0 0 0 0 0 0 0 0 0 0 0 0 0 0 0 0 0 0 0 0 0 0 0 0 0 0 0 0 0 0 0 0 0 0 0 0 0 0 0
0 0 0 0 0 0 0 0 0 0 0 0 0 0 0 0 0 0 0 0 0 0 0 0 0 0 0 0 0 0 0 0 0 0 0 0 0 0 0 0 0 0 0
0 0 0 0 0 0 0 0 0 0 0 0 0 0 0 0 0 0 0 0 0 0 0 0 0 0 0 0 0 0 0 0 0 0 0 0 0 0 0 0 0 0 0
0 0 0 0 0 0 0 0 0 0 0 0 0 0 0 0 0 0 0 0 0 0 0 0 0 0 0 0 0 0 0 0 0 0 0 0 0 0 0 0 0 0 0
0 0 0 0 0 0 0 0 0 0 0 0 0 0 0 0 0 0 0 0 0 0 0 0 0 0 0 0 0 0 0 0 0 0 0 0 0 0 0 0 0 0 0
0 0 0 0 0 0 0 0 0 0 0 0 0 0 0 0 0 0 0 0 0 0 0 0 0 0 0 0 0 0 0 0 0 0 0 0 0 0 0 0 0 0 0
0 0 0 0 0 0 0 0 0 0 0 0 0 0 0 0 0 0 0 0 0 0 0 0 0 0 0 0 0 0 0 0 0 0 0 0 0 0 0 0 0 0 0
Wind_Speed
7 6 5 5 7 6 6 6 6 6 6 7 7 7 8 8 8 8 5 9 12 13 14 14 13 13 13 13 12 11 12 13 13 14 15 16 16 16 16 17 18 18 17
7 6 7 7 7 7 6 6 7 6 6 6 7 8 8 9 8 8 8 7 13 14 14 14 14 14 13 13 12 11 11 12 12 13 14 14 15 15 16 17 18 18 18
8 8 8 7 7 7 7 7 8 7 7 7 8 8 8 8 8 8 9 8 7 12 15 14 14 13 13 13 13 13 12 12 12 13 13 14 14 14 15 16 17 18 19
10 8 8 8 7 7 7 6 7 8 7 7 7 7 7 7 9 9 9 8 8 8 9 13 13 13 14 14 14 14 13 13 13 14 14 14 14 14 14 15 16 18 19
10 9 8 7 8 7 7 8 7 6 7 7 8 8 8 8 8 9 10 10 9 8 8 6 11 13 14 14 14 15 15 14 14 14 15 15 15 15 15 15 16 17 19
9 8 7 9 8 7 7 7 8 7 7 7 9 9 9 10 9 9 10 9 7 8 8 7 7 9 13 13 13 14 15 15 15 15 15 15 15 15 15 16 16 17 19
8 7 7 7 7 7 8 9 8 9 7 6 7 9 9 10 9 7 7 7 7 6 6 6 6 6 5 11 13 13 14 15 15 15 16 16 15 15 16 16 16 17 18
8 8 8 7 6 6 9 8 7 7 7 6 6 7 7 7 5 5 5 6 6 6 6 6 5 6 7 5 5 10 11 12 13 14 15 15 15 15 15 16 17 17 19
8 8 8 7 6 6 7 7 6 8 7 6 5 6 6 6 6 5 5 5 5 6 7 6 7 6 7 6 6 7 8 7 9 10 11 12 12 13 14 15 16 17 19
6 6 6 6 6 6 6 7 7 6 7 6 5 6 7 6 6 6 6 4 5 7 7 7 7 6 6 6 4 3 4 5 6 8 10 11 11 12 13 15 17 18 19
7 7 7 6 6 6 6 6 5 6 6 6 5 5 5 5 7 6 8 7 6 6 5 6 6 5 5 5 4 1 2 4 5 6 8 10 12 12 13 15 17 19 20
6 7 7 7 7 7 6 6 6 7 5 5 5 4 5 5 4 5 7 7 7 6 5 4 5 4 3 3 3 1 2 3 4 5 7 9 11 13 14 16 18 19 21
6 7 7 7 6 6 5 5 5 5 5 4 4 3 3 3 4 4 6 6 7 5 4 3 3 3 3 3 2 1 3 3 3 4 6 8 10 12 14 16 18 19 20
6 7 7 6 6 6 5 5 4 4 3 3 3 2 3 2 2 3 4 6 7 5 3 3 3 2 4 5 2 4 4 4 4 5 6 8 9 11 13 14 16 17 18
5 6 6 5 5 5 4 5 3 3 3 3 3 3 2 1 2 2 3 4 6 7 7 3 3 4 4 5 3 5 5 3 5 6 6 8 9 11 12 13 15 16 17
4 5 6 5 5 5 5 4 4 4 3 2 1 2 1 1 2 2 3 3 4 5 7 6 5 6 7 6 3 5 5 4 7 6 6 7 8 10 11 12 13 14 16
2 4 5 5 5 5 4 4 3 4 4 3 3 3 3 4 3 3 3 3 4 5 7 7 6 6 7 7 5 5 5 5 4 5 5 6 8 9 10 11 10 11 14
3 3 3 4 4 5 5 5 5 5 5 5 5 5 4 3 3 4 4 4 4 4 6 8 7 6 7 7 6 5 4 4 4 4 3 5 7 8 8 8 7 8 11
4 3 2 3 4 5 6 6 6 7 7 7 6 6 6 5 5 5 5 6 5 4 4 6 6 5 6 7 7 5 4 4 5 4 5 4 3 5 6 6 4 4 9
4 3 3 3 4 5 6 7 8 8 8 8 7 7 7 7 7 6 5 6 6 6 4 5 5 6 6 8 7 7 6 4 4 3 2 1 1 2 3 4 3 1 6
4 3 4 4 5 5 6 8 9 9 9 9 8 8 8 7 7 7 7 8 8 7 6 6 6 7 8 9 8 7 7 6 3 2 2 2 1 2 0 1 3 4 5
4 4 4 5 6 6 7 6 6 9 8 8 7 6 7 6 4 3 3 5 7 8 9 8 7 8 9 9 8 8 8 7 4 3 3 2 1 1 1 0 4 5 5
5 5 5 6 8 7 6 6 5 7 8 7 6 5 5 7 7 6 1 5 3 3 4 7 8 9 10 10 11 10 8 7 5 4 2 1 1 1 1 2 7 6 6
5 5 5 7 8 7 6 6 4 7 7 6 6 6 5 7 8 9 6 6 5 6 6 7 7 8 8 9 10 10 8 5 1 2 2 2 1 1 1 2 5 6 6
6 6 6 7 8 7 5 4 3 6 5 6 5 6 6 6 8 10 6 6 6 5 3 2 2 6 8 8 9 9 9 8 6 3 3 2 2 1 1 2 4 7 7
6 6 6 6 7 8 5 1 5 3 4 4 4 6 9 7 7 10 6 6 7 7 7 5 2 3 5 4 4 8 9 9 7 5 5 4 2 1 1 1 2 3 5
Wind_Direction
235 239 245 251 258 256 246 246 259 264 263 257 260 262 267 269 266 262 251 206 220 238 252 257 253 246 243 243 243 242 239 236 233 231 231 233 233 230 225 221 217 212 209
241 244 241 241 250 256 264 269 264 261 261 268 268 267 269 273 271 272 272 241 213 224 240 251 254 251 245 239 237 236 234 234 232 229 229 230 231 230 227 223 218 212 208
236 239 248 246 247 251 252 254 262 263 259 259 260 265 263 264 272 274 275 277 261 222 221 235 246 250 247 240 234 233 231 231 230 228 226 226 227 228 227 225 220 213 207
239 240 247 249 250 253 252 252 255 259 262 268 275 278 276 268 264 269 268 263 269 275 236 219 233 245 247 242 235 231 229 228 228 227 226 225 225 225 225 225 222 215 208
242 242 249 255 257 257 255 257 251 254 265 271 275 269 271 274 276 272 276 274 267 264 271 234 218 235 244 245 238 232 228 227 226 226 226 226 226 225 224 224 222 217 209
246 246 250 254 258 258 258 257 265 259 263 270 277 281 277 275 272 272 274 271 268 267 266 275 254 228 223 235 240 238 235 229 226 226 226 227 227 225 223 222 221 218 211
251 249 256 258 254 255 257 257 256 256 256 260 268 272 268 260 258 264 266 278 277 276 275 272 270 281 241 217 228 237 241 238 231 228 227 227 227 226 224 223 220 217 212
247 249 248 252 252 255 257 256 254 256 259 250 264 283 283 272 233 248 263 261 278 284 279 266 267 261 270 261 220 225 240 246 243 235 230 229 229 229 228 225 221 217 213
245 246 251 254 252 250 253 253 250 250 257 258 248 265 284 296 319 275 269 275 283 289 286 283 267 263 260 262 254 221 230 246 257 254 246 241 238 235 234 231 226 219 213
235 239 244 249 249 245 244 245 240 243 247 256 246 244 260 288 289 295 281 281 288 284 289 290 289 275 264 261 254 254 223 237 251 262 264 263 257 249 243 240 235 226 216
209 214 220 226 235 240 239 242 241 242 242 252 259 258 259 257 254 270 290 302 298 291 292 290 288 290 292 277 273 266 189 225 238 254 265 272 272 266 258 251 245 236 224
201 202 207 210 218 223 222 223 230 232 244 250 260 256 259 267 277 275 286 299 303 306 308 301 294 301 302 294 283 87 219 226 233 248 261 270 275 274 269 262 255 245 234
193 187 196 197 203 209 207 209 216 226 223 226 240 250 258 272 289 290 291 301 302 303 307 302 334 334 330 330 318 211 227 220 236 252 263 270 275 276 274 267 258 248 238
185 175 183 183 185 194 196 198 206 199 202 216 232 255 263 274 292 292 300 308 305 303 304 336 336 339 342 320 349 260 248 209 238 259 271 278 280 278 273 267 257 248 239
168 166 165 165 172 178 184 198 188 192 188 208 199 199 256 334 305 317 306 307 310 313 320 332 322 327 321 318 314 282 274 202 239 260 273 282 287 288 282 273 257 244 234
147 148 149 156 163 169 178 195 178 164 179 159 119 73 6 2 351 330 325 318 304 303 305 321 319 326 332 313 296 287 274 207 233 250 274 288 297 299 293 282 264 242 224
107 134 140 146 154 160 163 172 152 146 141 117 107 89 62 28 9 349 346 336 332 323 308 318 328 330 321 315 314 291 267 246 225 218 269 298 308 308 305 295 273 241 213
72 79 110 132 147 145 145 144 132 121 112 101 86 77 66 64 44 14 353 357 353 336 316 321 325 333 335 332 323 300 278 256 253 188 245 295 312 314 316 309 286 239 203
68 63 91 122 129 126 121 115 111 106 100 92 85 78 69 59 42 36 10 7 352 347 334 321 333 349 348 351 339 324 300 278 263 204 215 245 306 323 331 336 320 241 191
102 104 110 117 119 118 117 113 109 104 99 92 83 74 62 53 39 21 19 10 357 339 344 338 356 4 6 1 353 344 333 315 290 267 247 288 307 314 354 8 14 83 160
125 125 127 126 124 120 109 112 116 111 107 101 93 83 70 60 42 16 14 9 1 351 357 360 9 12 14 3 359 342 335 327 314 307 272 244 245 289 309 78 59 77 122
133 128 128 128 115 91 69 72 106 112 108 103 97 94 99 75 79 101 60 32 16 7 4 357 12 10 7 2 350 342 345 341 338 339 299 279 254 276 295 326 115 112 120
149 137 136 124 105 96 93 86 83 113 107 97 89 68 55 56 21 23 94 181 123 81 353 335 7 1 358 359 340 341 350 343 346 351 330 311 291 268 285 77 131 144 147
150 145 140 127 117 115 117 114 115 116 107 100 86 68 54 47 28 355 3 24 30 42 20 10 8 358 2 347 333 325 327 325 12 38 8 339 316 249 207 156 159 172 175
154 153 139 134 127 127 140 158 228 135 121 105 82 58 36 52 25 345 1 23 21 22 139 163 286 296 290 293 318 335 345 338 350 23 25 350 338 308 216 192 176 188 194
157 154 135 135 131 129 139 189 284 169 129 132 125 118 74 41 20 357 9 22 16 3 350 354 319 310 321 331 317 348 347 342 343 357 23 348 351 359 336 232 188 186 201